Location: Bothwell
(42.3833°S, 147.0000°E)
Time: 09:52:20
(UTC+10:00)

Hubble Space Telescope - Visible Passes

Search period start: 28 June 2022 00:00
Search period end: 08 July 2022 00:00
Orbit: 532 x 536 km, 28.5° (Epoch: 27 June)

Date Brightness Start Highest point End Pass type
(mag) Time Alt. Az. Time Alt. Az. Time Alt. Az.
28 Jun 3.4 05:59:27 10° NNW 06:00:52 12° N 06:02:19 10° NNE visible
29 Jun 3.4 05:47:18 10° NNW 05:48:49 12° N 05:50:22 10° NNE visible
30 Jun 3.3 05:35:48 11° NNW 05:36:47 12° N 05:38:18 10° NNE visible
01 Jul 3.3 05:24:36 11° N 05:24:44 12° N 05:26:10 10° NNE visible
02 Jul 3.5 05:13:23 11° N 05:13:23 11° N 05:13:53 10° N visible
